Notices

What's New in latest Release from April 7th, 2021:

- Updated Glossary, including Speed of Maximum Gust, and Total Hourly Precipitation

- Updated national and regional climate services offices contacts and prices information

- Addition of station inventory lists for 1981-2010, 1971-2000, and 1961-1990 Normals.

If you haven't already, please take our survey and provide feedback about our website: https://eccc.sondage-survey.ca/f/LanguageSelection.aspx?s=442ca660-fcf1-47c0-95a9-59707d6fd709

Hourly Data Report for April 06, 2018

KENORA A
ONTARIO
Current Station Operator: NAVCAN

49°47'18.000" N
94°21'47.000" W
409.70 m
6034076
71850
YQK

Download Data

Hourly Data (April 2018)
Hourly Data Report for April 6, 2018
TIME
LST
Temp Definition
°C
Dew Point Definition
°C
Rel Hum Definition
%
Precip. Amount Definition
mm

Wind Dir Definition
10's deg

Wind Spd Definition
km/h
Visibility Definition
km
Stn Press Definition
kPa
Hmdx Definition


Wind Chill Definition


Weather Definition


00:00 -12.8 -21.6 49   35 23 24.1 96.56   -22 Clear
01:00 -13.9 -21.3 54   34 17 24.1 96.61   -22 LegendNANA
02:00 -14.9 -20.8 61   34 21 24.1 96.70   -24 LegendNANA
03:00 -15.6 -20.1 69   32 16 24.1 96.76   -24 Mainly Clear
04:00 -16.2 -20.3 71   31 13 24.1 96.82   -24 LegendNANA
05:00 -16.8 -20.9 71   31 18 24.1 96.88   -26 LegendNANA
06:00 -17.4 -21.8 69   30 14 24.1 96.92   -26 Clear
07:00 -16.9 -21.7 67   30 20 24.1 96.95   -27 LegendNANA
08:00 -15.8 -20.9 66   30 22 24.1 96.94   -26 Snow
09:00 -14.0 -20.1 61   29 28 24.1 96.93   -24 Mostly Cloudy
10:00 -12.5 -18.9 59   30 24 24.1 96.93   -22 LegendNANA
11:00 -11.3 -18.6 55   30 30 24.1 96.91   -21 LegendNANA
12:00 -9.8 -17.2 55   30 24 24.1 96.90   -18 Mostly Cloudy
13:00 -9.2 -16.5 56   28 28 24.1 96.90   -18 LegendNANA
14:00 -8.1 -15.5 56   30 24 24.1 96.86   -16 LegendNANA
15:00 -7.7 -15.9 52   31 22 24.1 96.87   -15 Mostly Cloudy
16:00 -6.7 -14.7 53   32 23 24.1 96.87   -14 LegendNANA
17:00 -7.8 -15.9 52   31 31 24.1 96.88   -17 LegendNANA
18:00 -7.9 -15.8 53   30 20 24.1 96.87   -15 Mainly Clear
19:00 -8.6 -16.1 55   30 18 24.1 96.87   -16 LegendNANA
20:00 -9.3 -16.4 57   31 14 24.1 96.92   -16 LegendNANA
21:00 -10.4 -19.3 49   32 21 24.1 96.95   -19 Clear
22:00 -11.4 -19.8 50   32 24 24.1 96.96   -20 LegendNANA
23:00 -12.2 -19.2 56   31 11 24.1 96.99   -18 LegendNANA

Notes on Data Quality.

Legend

  • E = Estimated
  • M = Missing
  • NA = Not Available*
  • [empty] = Indicates an unobserved value
Date modified: